Location: Isle of Man Observatory
(54.1776°N, 4.6264°W)
Time: 20:46:51
(UTC+01:00)

Tiangong 2 - Visible Passes

Search period start: 18 January 2018 00:00
Search period end: 28 January 2018 00:00
Orbit: 384 x 390 km, 42.8° (Epoch: 18 January)

Date Brightness Start Highest point End Pass type
(mag) Time Alt. Az. Time Alt. Az. Time Alt. Az.
21 Jan 4.0 08:28:08 10° SSW 08:29:11 11° S 08:30:15 10° SSE visible
22 Jan 3.9 07:29:53 10° S 07:30:45 11° S 07:31:38 10° SSE visible
23 Jan 3.9 08:07:23 10° SSW 08:08:12 11° S 08:09:02 10° S visible
24 Jan 3.8 07:09:05 11° SSW 07:09:46 11° S 07:10:49 10° SSE visible
26 Jan 4.0 06:49:18 10° S 06:49:18 10° S 06:49:31 10° S visible
